Vertical_Velocity
-0 -0 -0 -0 -1 -1 -1 0 1 1 2 1 -1 -2 -2 -2 -2 0 1 1 -0 -1 -1 -1 0 -2 -0 0 -3 -0 1 0 -1 1 0 1 -1 -3 -1 1 -1 -1 -0
1 1 1 0 0 -1 -1 -1 0 2 2 0 0 -2 -1 -3 -1 -1 -0 1 -0 -1 -1 -1 1 -1 -1 0 -0 -1 -2 -1 0 -0 -1 2 1 -2 -0 1 -1 -0 -1
0 1 1 0 -0 -0 0 2 1 2 1 1 0 0 -1 -1 -2 -2 1 -1 -1 -1 -0 -1 -1 -0 -1 -2 1 1 1 -1 -2 1 1 0 -0 -0 -1 0 -0 -1 2
-2 -1 1 -0 0 0 -0 -0 -0 -4 -2 2 1 1 -1 -2 1 2 -2 -0 -0 -0 -1 -0 -1 -1 -1 0 -3 -1 0 -0 -2 1 -1 1 -2 -1 -1 -1 -1 -0 -0
0 -0 -0 -1 0 1 1 -0 0 2 -0 -3 -2 0 3 1 1 0 3 -0 -1 1 1 -0 -1 -1 -1 1 -1 -2 -0 1 -2 -2 0 -1 -1 1 1 -1 0 -1 -0
-0 0 3 -2 1 0 2 3 1 -0 -0 -2 -1 -1 -3 -0 1 1 -0 -0 1 -1 -0 -0 0 -0 0 -1 1 -1 -1 -0 -1 -2 -0 0 -1 -1 1 -1 -0 -1 0
3 -0 2 -5 2 2 1 1 2 -1 1 1 -0 3 1 -5 -2 1 -1 2 -0 -0 -0 0 -0 0 -1 -1 1 -1 -2 -1 -0 0 0 2 0 -1 -0 0 0 -1 0
-1 -3 -1 1 -1 -3 -1 2 0 1 -2 1 4 -4 2 3 3 1 -0 -0 1 1 1 1 -1 0 -1 1 -0 1 -0 0 -1 1 1 0 0 -0 1 1 -0 1 -1
2 0 1 3 -2 -5 2 -0 3 1 1 -1 -2 -1 -1 6 -4 1 -0 2 1 2 1 2 -0 0 1 -1 0 2 1 2 -1 -1 0 1 1 2 -1 0 0 0 -1
1 4 1 1 -1 -0 0 1 1 4 -4 6 -5 0 1 0 -5 2 1 0 1 3 3 -1 -0 -0 -1 -1 -1 1 0 -1 -1 -1 -1 -1 0 2 1 0 0 -1 -1
-2 0 1 2 -0 -2 1 0 1 3 4 -2 1 -2 -2 -1 -0 -1 1 -1 -0 -3 2 0 2 -1 -1 -0 1 0 1 -0 -2 -2 -1 -0 -0 -0 1 1 1 -1 -1
5 -1 -0 3 7 -1 2 1 -4 -3 3 -1 -0 1 3 -1 2 3 -2 -6 -6 3 4 -2 3 -0 0 -1 -0 -0 -0 -2 -1 -2 0 -1 -0 -1 -2 -0 -1 0 0
-1 6 2 2 3 7 4 -0 -2 -2 4 1 -1 3 -1 1 2 -2 5 -2 -0 2 -4 -4 2 1 1 -4 0 -1 -2 -1 -0 0 1 -2 0 2 1 0 3 2 1
3 3 5 2 3 4 -1 -3 -1 4 3 0 -1 3 2 2 1 9 5 -0 -1 2 5 6 2 -0 -3 -1 -0 -1 -1 2 1 1 2 -0 -1 2 1 -0 -1 -0 0
4 7 4 9 3 6 -1 0 -1 3 -2 1 3 3 -1 2 1 3 -1 2 2 0 6 8 -1 -1 1 -1 -0 0 1 1 -5 3 -0 -1 -0 1 0 2 0 -0 2
4 6 7 2 3 5 5 2 -1 3 -5 -3 1 2 0 6 0 2 1 0 -1 -0 -3 12 3 6 0 -0 3 -2 -5 1 -3 -1 3 1 -3 2 -0 -1 2 2 4
1 0 4 6 3 2 3 1 1 -1 6 -5 2 3 5 4 0 1 -0 2 -0 2 -4 12 3 0 -1 3 2 1 1 0 1 2 1 5 2 -2 0 -1 -2 -0 1
4 5 -2 -6 -6 -2 -4 -4 -1 -0 -1 -2 2 1 4 -2 1 -1 2 3 -0 5 3 8 -2 -2 2 2 -0 2 -2 1 6 2 0 -0 -2 1 -1 0 3 1 0
8 2 -6 -4 -4 -0 1 -2 2 -2 1 -1 2 1 2 -2 1 5 -2 1 4 2 5 3 -2 2 -2 5 1 1 -0 3 4 1 1 4 6 1 2 1 1 2 -0
-3 3 2 2 -1 -1 0 0 4 4 3 1 5 -6 4 -1 0 1 -1 2 14 10 7 2 0 3 1 6 -1 5 -3 5 0 -2 4 1 1 -1 -0 4 0 -1 3
-2 1 -2 -0 -0 -1 4 8 3 7 -1 3 -3 1 1 -1 5 -1 -5 7 10 6 1 4 2 -2 3 4 5 9 3 7 -0 -0 2 5 -1 0 3 -1 3 -3 2
5 1 2 0 -1 0 -1 -5 -5 -8 -6 4 -0 3 3 -1 -0 -1 1 5 13 5 11 3 10 2 6 -1 3 9 8 5 -5 6 -1 7 4 3 -0 3 1 2 -1
16 9 4 4 4 -0 -0 4 -0 4 5 3 10 3 26 19 17 13 9 8 15 14 8 15 11 11 3 7 15 7 2 2 5 4 7 -0 4 0 2 4 1 0 -1
2 35 12 4 6 4 6 5 6 11 3 1 18 37 18 12 10 12 17 14 17 14 10 13 10 10 5 4 6 1 3 1 -3 -5 -3 -3 3 5 -1 2 2 -1 -1
8 6 3 -1 -6 -4 -8 -1 1 -6 -4 -4 -4 -8 -5 -7 -3 -1 -11 -13 -7 -7 -1 4 6 4 4 10 10 2 1 2 3 6 4 2 5 9 5 2 6 -1 -1
-6 -3 -4 -5 -4 -3 -3 -0 1 -4 -8 -8 -3 -5 -4 -6 -4 -2 -5 -6 -3 2 -3 1 1 -8 -8 -3 3 4 2 -1 3 -1 6 2 8 14 -2 6 1 0 -1
Height
5851 5852 5854 5855 5857 5859 5860 5863 5865 5867 5868 5870 5870 5870 5870 5871 5871 5871 5871 5871 5870 5869 5868 5867 5866 5864 5863 5861 5859 5857 5855 5851 5849 5846 5844 5842 5839 5837 5834 5829 5827 5822 5819
5846 5847 5849 5850 5852 5853 5855 5857 5860 5862 5864 5864 5865 5866 5867 5867 5867 5867 5867 5867 5866 5866 5865 5864 5862 5860 5859 5858 5856 5853 5852 5850 5846 5844 5842 5840 5837 5835 5833 5830 5826 5821 5817
5840 5842 5844 5846 5847 5848 5849 5852 5854 5856 5858 5859 5860 5861 5861 5862 5863 5863 5862 5863 5862 5862 5861 5860 5859 5857 5855 5854 5853 5850 5848 5846 5845 5842 5839 5838 5835 5832 5831 5828 5824 5820 5816
5834 5836 5838 5839 5841 5843 5844 5845 5848 5850 5851 5853 5855 5855 5856 5857 5857 5857 5857 5857 5857 5856 5856 5856 5854 5853 5852 5850 5848 5846 5843 5842 5840 5839 5836 5835 5833 5831 5828 5825 5822 5819 5815
5826 5829 5831 5832 5833 5836 5839 5839 5840 5842 5844 5846 5849 5851 5852 5852 5852 5851 5851 5851 5851 5851 5850 5850 5849 5848 5847 5845 5844 5842 5840 5838 5836 5834 5832 5831 5829 5827 5825 5821 5820 5817 5814
5818 5821 5823 5823 5826 5829 5833 5834 5834 5835 5837 5839 5841 5844 5846 5847 5848 5847 5846 5846 5845 5845 5845 5844 5843 5843 5842 5840 5838 5837 5835 5833 5831 5830 5828 5827 5825 5823 5820 5818 5816 5814 5810
5807 5811 5814 5815 5819 5821 5825 5827 5829 5829 5830 5832 5834 5838 5838 5839 5841 5841 5841 5839 5839 5838 5838 5838 5837 5836 5836 5834 5833 5832 5831 5828 5827 5825 5824 5822 5820 5818 5816 5814 5812 5809 5807
5795 5800 5805 5807 5810 5812 5816 5819 5822 5823 5823 5824 5826 5827 5831 5833 5834 5834 5834 5833 5832 5831 5830 5831 5830 5829 5829 5828 5827 5825 5825 5823 5822 5820 5817 5816 5814 5813 5811 5808 5807 5804 5802
5782 5788 5793 5799 5800 5801 5807 5810 5813 5815 5816 5817 5819 5820 5821 5826 5826 5826 5827 5826 5826 5825 5824 5823 5823 5821 5822 5821 5820 5819 5818 5817 5815 5813 5811 5809 5807 5806 5805 5804 5801 5799 5796
5769 5774 5781 5788 5790 5792 5796 5800 5803 5806 5807 5810 5810 5814 5815 5817 5818 5818 5819 5819 5819 5818 5817 5818 5816 5814 5814 5814 5813 5812 5810 5809 5807 5805 5803 5800 5799 5799 5798 5797 5796 5793 5791
5753 5758 5765 5773 5778 5781 5786 5790 5792 5797 5799 5801 5804 5805 5807 5808 5809 5810 5811 5810 5810 5809 5809 5810 5808 5806 5805 5806 5805 5804 5802 5801 5799 5796 5794 5792 5791 5790 5790 5790 5789 5786 5785
5738 5743 5750 5757 5763 5769 5774 5778 5784 5786 5789 5792 5793 5796 5800 5800 5801 5800 5801 5802 5800 5798 5800 5801 5799 5798 5798 5798 5798 5795 5793 5791 5789 5787 5785 5783 5782 5782 5782 5781 5780 5779 5777
5717 5726 5732 5739 5748 5756 5762 5767 5772 5776 5779 5782 5786 5788 5790 5791 5792 5791 5791 5790 5788 5787 5788 5789 5790 5790 5789 5789 5788 5785 5783 5782 5782 5779 5777 5776 5773 5773 5772 5772 5772 5770 5769
5694 5705 5714 5723 5732 5739 5747 5755 5760 5765 5769 5773 5775 5779 5781 5782 5781 5781 5782 5780 5779 5776 5776 5779 5778 5777 5777 5777 5776 5774 5773 5773 5772 5771 5768 5767 5765 5763 5762 5761 5762 5762 5761
5672 5683 5692 5703 5712 5722 5730 5739 5745 5752 5759 5763 5767 5770 5771 5772 5771 5772 5771 5769 5769 5767 5766 5766 5763 5761 5762 5763 5762 5761 5761 5762 5761 5760 5758 5757 5756 5755 5753 5752 5751 5751 5751
5649 5661 5672 5683 5695 5705 5714 5724 5733 5742 5748 5753 5757 5759 5760 5760 5759 5759 5759 5758 5757 5756 5753 5753 5748 5750 5749 5749 5750 5748 5748 5751 5750 5750 5748 5747 5746 5744 5743 5743 5741 5742 5741
5629 5642 5655 5668 5681 5692 5703 5714 5722 5731 5738 5742 5745 5747 5749 5747 5747 5747 5747 5745 5744 5744 5741 5740 5737 5737 5736 5738 5738 5738 5738 5739 5738 5739 5737 5735 5732 5731 5732 5732 5732 5730 5730
5607 5623 5638 5653 5670 5684 5694 5703 5713 5719 5725 5730 5734 5734 5737 5736 5735 5734 5734 5733 5732 5729 5727 5726 5724 5723 5725 5728 5728 5726 5727 5727 5727 5727 5725 5724 5723 5720 5720 5720 5721 5720 5718
5590 5606 5624 5644 5659 5673 5684 5693 5700 5708 5712 5717 5721 5723 5726 5724 5723 5722 5720 5719 5717 5715 5710 5709 5710 5712 5714 5715 5715 5716 5715 5715 5714 5714 5713 5714 5712 5710 5709 5707 5707 5707 5706
5582 5596 5614 5635 5652 5664 5674 5683 5689 5696 5702 5709 5711 5712 5712 5710 5708 5707 5704 5703 5704 5701 5698 5697 5698 5701 5701 5702 5701 5703 5702 5702 5700 5699 5699 5699 5699 5699 5698 5696 5695 5693 5692
5580 5595 5612 5629 5645 5659 5667 5675 5683 5691 5695 5699 5698 5698 5698 5694 5695 5692 5690 5691 5691 5689 5685 5686 5686 5686 5687 5689 5689 5689 5687 5687 5686 5685 5684 5684 5685 5685 5684 5683 5682 5680 5678
5589 5601 5615 5629 5642 5653 5664 5671 5677 5681 5683 5683 5683 5683 5683 5682 5680 5677 5676 5674 5675 5674 5675 5674 5674 5672 5674 5674 5673 5673 5671 5670 5669 5669 5668 5668 5667 5668 5667 5667 5666 5666 5665
5601 5613 5623 5633 5643 5652 5658 5663 5666 5668 5669 5672 5673 5673 5674 5671 5668 5667 5666 5665 5665 5664 5663 5661 5660 5659 5658 5658 5656 5654 5653 5652 5651 5651 5650 5649 5650 5651 5650 5649 5650 5650 5650
5612 5623 5629 5636 5643 5647 5652 5656 5660 5663 5663 5666 5665 5664 5662 5660 5658 5657 5657 5654 5653 5651 5649 5647 5644 5642 5641 5639 5637 5636 5634 5633 5632 5631 5632 5630 5632 5632 5632 5632 5632 5633 5634
5619 5624 5628 5634 5639 5643 5647 5649 5652 5656 5658 5657 5658 5655 5654 5653 5651 5650 5648 5644 5639 5635 5632 5629 5625 5622 5620 5619 5617 5614 5613 5612 5611 5611 5610 5611 5612 5610 5611 5612 5612 5613 5615
5631 5634 5639 5641 5645 5648 5650 5651 5652 5653 5652 5652 5650 5649 5647 5645 5643 5639 5635 5632 5628 5624 5621 5617 5612 5606 5601 5597 5594 5593 5592 5590 5589 5589 5590 5590 5591 5589 5590 5592 5593 5593 5596